Location: Lanoux
(43.1180°N, 1.4255°E)
Time: 22:58:24
(UTC+00:00)

Daily predictions for brighter satellites

Satellite Brightness Start Highest point End
(mag) Time Altitude Azimuth Time Altitude Azimuth Time Altitude Azimuth
Cosmos 2266 Rocket 4.0 16:44:39 10° N 16:50:42 58° E 16:56:37 10° SSE
Cosmos 1606 Rocket 4.0 16:46:50 10° SSE 16:50:58 41° E 16:55:09 10° NNE
Cosmos 1503 Rocket 4.1 16:47:59 10° SSW 16:53:13 83° WNW 16:58:27 10° NNE
EXPRESS MD2 3.4 16:54:01 10° SSW 16:56:06 30° SE 16:58:50 10° ENE
Cosmos 1484 Rocket 2.8 16:54:41 10° S 16:58:11 74° WSW 17:01:41 10° NNW
Thor Agena Rocket 3.5 16:54:13 10° SSE 16:59:22 66° ENE 17:04:28 10° N
CZ-4C R/B 3.1 16:53:31 10° NW 17:00:45 86° NE 17:09:38 10° SE
UNK 3.8 16:56:15 10° NNE 17:00:46 59° E 17:05:15 10° S
Cosmos 1743 3.0 16:59:47 10° NNW 17:02:59 56° W 17:06:07 10° S
NOSS 2-3 (D) 3.1 16:59:22 10° SSW 17:03:05 68° ESE 17:06:49 10° NE
NOSS 2-3 (E) 3.1 17:00:02 10° SSW 17:03:44 76° ESE 17:07:28 10° NE
Cosmos 1354 Rocket 4.0 16:58:58 10° SSW 17:04:14 86° ESE 17:09:31 10° NNE
IGS 5A 3.5 17:01:41 10° S 17:05:37 79° WSW 17:09:37 10° NNW
Cosmos-2242 4.3 17:04:53 10° SE 17:07:58 20° E 17:11:03 10° NE
USA 238 DEB 3.7 17:02:21 10° SSW 17:08:10 54° ESE 17:14:31 10° NE
USA 238 3.7 17:02:27 10° SSW 17:08:17 54° ESE 17:14:38 10° NE
MOS 1 Rocket 3.9 17:04:26 10° SE 17:09:02 39° ENE 17:13:52 10° N
Cosmos 2151 3.3 17:06:59 10° NNW 17:11:08 70° W 17:15:16 10° S
Cosmos 1898 Rocket 4.4 17:07:42 10° SSE 17:12:05 29° E 17:16:29 10° NE
Gbstr 26 Del rocket 3.3 17:09:07 10° WSW 17:13:13 49° NNW 17:16:29 13° NE
Cosmos 1726 Rocket 3.8 17:08:57 10° S 17:13:28 54° E 17:17:57 10° NNE
AQUARIUS 4.4 17:12:28 10° SE 17:16:38 43° ENE 17:20:49 10° N
USA 215 4.5 17:12:17 10° NE 17:17:33 27° N 17:22:50 10° WNW
SMAP 3.0 17:13:14 10° SSE 17:17:53 81° ENE 17:22:34 10° N
IRIDIUM 104 4.5 17:13:57 10° N 17:19:11 82° W 17:24:24 10° S
Meteor 1-20 Rocket 4.5 17:15:33 10° NNW 17:20:59 71° W 17:26:26 10° S
Landsat 7 3.7 17:17:25 10° SSE 17:22:02 69° ENE 17:26:40 10° N
Cosmos 1805 4.3 17:19:40 10° NNE 17:22:03 18° ENE 17:24:26 10° ESE
Cosmos 2297 Rocket 3.6 17:17:51 10° NW 17:23:11 43° WSW 17:28:27 10° S
GEOS 3 Rocket 3.7 17:19:28 10° NE 17:24:53 87° NW 17:30:15 10° SW
YAOGAN 1 3.7 17:21:50 10° ESE 17:25:00 21° ENE 17:28:10 10° NNE
Cosmos 1937 Rocket 4.3 17:23:13 10° SSE 17:27:38 29° E 17:30:51 16° NE
SL-16 R/B 3.9 17:26:49 10° ESE 17:29:20 13° E 17:29:26 13° E
Cosmos 990 Rocket 4.4 17:26:35 10° SSW 17:31:39 64° WNW 17:36:47 10° NNE
Okean 1-7 Rocket 4.1 17:27:45 10° NNW 17:32:05 61° W 17:36:21 10° S
CZ-2D R/B 4.3 17:29:26 10° SE 17:33:00 28° ENE 17:36:32 10° N
COSMOS 2455 3.9 17:31:21 10° SSE 17:36:07 25° ESE 17:38:36 19° ENE
SL-16 R/B 3.7 17:31:01 10° N 17:36:46 41° WNW 17:42:29 10° SW
Okean 1 3.8 17:34:01 10° SSE 17:37:11 30° E 17:38:20 24° ENE
SKYMED 2 4.0 17:35:14 12° NNE 17:39:01 42° E 17:43:07 10° S
SJ-6F 4.2 17:39:21 10° SSE 17:43:17 71° ENE 17:47:19 10° N
Cosmos 1980 Rocket 2.1 17:38:20 10° SSW 17:43:59 85° ESE 17:49:21 12° NNE
Aureole 1 Rocket 3.3 17:41:33 10° SSW 17:45:57 82° ESE 17:51:37 10° NNE
Cosmos 1844 Rocket 4.1 17:42:12 10° N 17:45:50 18° NE 17:45:50 18° NE
Cosmos 2219 3.3 17:41:01 10° NNW 17:46:38 51° ENE 17:52:13 10° SE
Meteor 1-26 Rocket 4.2 17:41:59 10° S 17:47:12 52° E 17:52:25 10° NNE
Cosmos 1953 Rocket 3.5 17:44:36 10° N 17:49:05 84° E 17:53:32 10° S
PSLV R/B 4.4 17:45:38 10° SE 17:49:59 26° NE 17:52:37 10° N
Helios 1A Rocket 4.4 17:51:44 16° SE 17:51:44 16° SE 17:52:50 10° SSE
ARIANE 5 R/B 2.9 17:45:57 10° S 17:50:58 67° WSW 17:56:06 10° NNW
IRS-1C 4.5 17:47:22 10° S 17:52:39 67° WSW 17:57:58 10° NNW
Cosmos 2263 Rocket 2.1 17:49:09 10° NNW 17:54:52 85° ENE 18:00:34 10° SSE
BREEZE-M DEB (TANK) 2.2 17:52:11 10° WSW 17:56:40 77° SSE 17:57:14 52° ENE
Meteor 1-5 Rocket 4.5 17:54:07 10° NNW 17:59:28 68° W 18:04:57 10° S
BREEZE-M DEB (TANK) 4.1 17:56:05 10° WNW 17:59:51 58° NNE 18:06:53 21° E
Cosmos 1680 Rocket 4.2 17:55:32 10° N 18:00:10 31° ENE 18:00:24 31° ENE
COSMO-SKYMED 1 2.7 17:59:08 35° NE 18:00:20 45° E 18:04:17 10° S
NOAA 6 4.5 17:56:41 10° SE 18:01:19 37° ENE 18:05:58 10° N
Cosmos 2369 3.7 17:56:00 10° SSW 18:01:39 67° ESE 18:05:20 23° NE
Cosmos 1076 Rocket 4.1 17:59:26 10° NNW 18:03:41 60° W 18:07:55 10° S
Meteor 2-10 4.1 17:58:33 10° N 18:04:00 84° E 18:09:37 10° S
Cosmos 1655 Rocket 4.5 18:06:35 10° NNW 18:12:44 62° W 18:18:48 10° S
USA 81 4.1 18:07:53 10° N 18:13:10 83° W 18:18:25 10° S
Cosmos 2227 Rocket 3.7 18:09:40 10° NW 18:14:49 38° WSW 18:19:58 10° S
SPOT 1/Viking Rocket 3.6 18:09:50 10° SSE 18:15:02 84° WSW 18:20:16 10° NNW
Cosmos 2058 Rocket 3.7 18:17:52 10° SSW 18:22:16 57° W 18:26:26 11° N
OceanSat 1 rocket 4.5 18:20:03 10° SSE 18:24:43 64° ENE 18:29:23 10° N
USA 308 4.4 18:28:20 10° SSW 18:29:25 19° S 18:29:25 19° S
Cosmos 2333 Rocket 3.4 18:26:26 10° SSE 18:29:34 26° SE 18:29:34 26° SE
Meteor 2-11 Rocket 4.3 18:29:58 10° N 18:36:10 76° E 18:42:17 10° SSE
Meteor 1-14 Rocket 4.5 18:34:38 10° N 18:39:09 49° NNE 18:39:09 49° NNE
Resurs 1-3 3.9 18:37:44 10° S 18:41:58 62° W 18:46:15 10° NNW
Cosmos 2322 Rocket 4.0 18:37:30 10° SSE 18:39:02 17° SSE 18:39:02 17° SSE
USA 59 Rocket 2.4 18:44:40 10° S 18:45:01 12° S 18:45:01 12° S
USA 215 4.2 18:59:28 31° NNE 18:59:28 31° NNE 19:04:54 10° NW
S3M 3.9 18:53:10 10° S 18:59:17 75° ESE 18:59:17 75° ESE
YAOGAN 1 3.9 18:56:40 10° SSW 19:00:35 37° W 19:04:34 10° NNW
Cosmos 2082 4.5 18:58:04 10° NW 19:03:34 51° WSW 19:09:04 10° S
BREEZE-M DEB (TANK) 3.2 18:59:39 10° WSW 19:06:16 78° W 19:06:16 78° W
SL-16 R/B 2.6 19:06:53 10° SSW 19:11:20 57° SSW 19:11:20 57° SSW
Cosmos 1745 Rocket 4.0 19:12:03 10° NNW 19:18:12 72° W 19:24:16 10° S
COSMOS 2455 3.3 19:15:43 10° SW 19:21:38 57° NW 19:21:46 56° NW
Cosmos 1980 Rocket 4.5 19:24:59 10° W 19:28:43 18° NW 19:31:07 14° NNW
Cosmos 1844 Rocket 4.2 19:24:58 10° NNW 19:27:31 28° NNW 19:27:31 28° NNW
